Regional Weather Roundup
Issued by NWS

Home | Current Version | Previous Version | Text Only | Print | Product List | Glossary Off
Versions: 1 2 3 4 5 6 7 8 9 10 11 12 13 14 15 16 17 18 19 20 21 22 23 24 25 26 27 28 29 30 31 32 33 34 35 36 37 38 39 40 41 42 43 44 45 46 47 48 49 50

000
ASUS45 KBOU 160607
RWRCO

WEATHER ROUNDUP FOR COLORADO
NATIONAL WEATHER SERVICE DENVER/BOULDER CO
1200 AM MDT TUE SEP 16 2014

NOTE: "FAIR" INDICATES FEW OR NO CLOUDS BELOW 12000 FEET WITH NO
SIGNIFICANT WEATHER AND/OR OBSTRUCTIONS TO VISIBILITY.

COZ001>005-013-030-031-160700-
...NORTHWEST COLORADO...

CITY           SKY/WX    TMP DP  RH WIND       PRES   REMARKS
CRAIG          CLEAR     48  41  76 CALM      30.28R
HAYDEN         CLEAR     55  36  47 E10       30.29S
MEEKER         CLEAR     54  39  57 NE7       30.30S
MOUNT WERNER   NOT AVBL
STEAMBOAT SPGS CLEAR     52  40  64 CALM      30.32S
WALDEN         CLEAR     45  32  61 SE8       30.39S
$$

COZ006>008-011-160700-
...WEST CENTRAL VALLEYS...

CITY           SKY/WX    TMP DP  RH WIND       PRES   REMARKS
GRAND JUNCTION CLEAR     64  42  44 S8        30.16R
MONTROSE       CLEAR     60  41  49 SE7       30.26S
EAGLE          CLEAR     54  39  58 CALM      30.35S
RIFLE          CLEAR     57  41  55 CALM      30.25R
DELTA          CLEAR     64  43  46 NE6       30.22R
NUCLA          CLEAR     63  37  39 E7        30.29R
$$

COZ017>023-064>068-160700-
...SOUTHWEST COLORADO...

CITY           SKY/WX    TMP DP  RH WIND       PRES   REMARKS
DURANGO        CLEAR     57  39  51 NE5       30.35R
CORTEZ         CLEAR     55  43  63 NE6       30.27R
PAGOSA SPRINGS CLOUDY    57  38  49 CALM      30.43S
TELLURIDE      NOT AVBL
WOLF CREEK PAS MOCLDY    43  34  70 SW20G25   30.69S
$$

COZ009-010-012-014-032>034-037-058>063-160700-
...CENTRAL COLORADO...

CITY           SKY/WX    TMP DP  RH WIND       PRES   REMARKS
ASPEN          CLEAR     50  36  58 S6        30.40S
BUENA VISTA    MOCLDY    46  41  80 CALM      30.46S
COPPER MTN     CLEAR     50  32  50 S15       30.68F
BERTHOUD PASS  FAIR      41  37  87 W10       30.71F
COTTONWOOD PAS PTCLDY    54  39  58 CALM      30.56F
GUNNISON       CLEAR     52  36  54 N7        30.43S
KREMMLING      CLEAR     43  36  75 SE3       30.39S
LEADVILLE      CLEAR     44  35  70 NE3       30.55S
MONARCH PASS   PTCLDY    43  36  75 CALM      30.79S
SALIDA         CLEAR     55  47  73 S5        30.50S
SUNLIGHT       CLEAR     54  30  40 CALM      30.62S
WILKERSON PASS NOT AVBL
$$

COZ069>075-160700-
...SAN LUIS VALLEY/SANGRE DE CRISTO MOUNTAINS...

CITY           SKY/WX    TMP DP  RH WIND       PRES   REMARKS
ALAMOSA        PTCLDY    53  44  71 CALM      30.42R
LA VETA PASS   NOT AVBL
SAGUACHE       NOT AVBL
$$

COZ035-036-038>040-160700-
...NORTHERN COLORADO FRONT RANGE...

CITY           SKY/WX    TMP DP  RH WIND       PRES   REMARKS
DENVER INTL AP CLEAR     57  49  74 SW9       30.23F
DMNS CITY PARK   N/A     54  52  95 SW1       30.23F
AURORA         CLEAR     56  50  80 S9        30.25F
FRONT RANGE AP CLEAR     59  52  77 S10       30.24F
ERIE MUNI ARPT CLEAR     51  48  89 CALM      30.22F
BOULDER MUN AP CLEAR     54  50  87 CALM      30.22F
CENTENNIAL     PTCLDY    56  49  77 S7        30.26F
BROOMFIELD     CLEAR     59  45  58 CALM      30.25F
FORT COLLINS   CLEAR     52  46  82 N3        30.23F
LONGMONT       CLEAR     53  48  84 CALM      30.24S
$$

COZ041-046-047-076>085-087-088-160700-
...PIKES PEAK/PALMER DIVIDE AND SOUTHERN FOOTHILLS...

CITY           SKY/WX    TMP DP  RH WIND       PRES   REMARKS
COLO. SPRINGS  CLOUDY    53  51  93 S9        30.37F FOG
A. F. ACADEMY  CLOUDY    53  51  93 S8        30.37F
ELLICOTT       NOT AVBL
FALCON         LGT RAIN  51  50  99 SW10      30.39F VSB<1/4
FORT CARSON    CLOUDY    54  54 100 S10       30.34F
LIMON          CLOUDY    52  51  97 S16       30.31F
MONUMENT HILL  CLOUDY    48  48 100 S8G16     30.35R FOG
TRINIDAD       MOCLDY    51  49  92 NW6       30.33F
$$

COZ042>045-048>051-090-091-160700-
...NORTHEAST COLORADO...

CITY           SKY/WX    TMP DP  RH WIND       PRES   REMARKS
GREELEY ARPT   CLEAR     52  45  76 NW5       30.21F
AKRON          CLEAR     53  50  89 S13       30.23F
BURLINGTON     CLOUDY    58  51  78 S10       30.28F
WRAY           CLEAR     54  50  87 S7        30.24F
STERLING       CLEAR     55  54  94 S8        30.19F
HOLYOKE        CLEAR     54  48  82 S6        30.23S
FORT MORGAN    CLEAR     54  51  89 SE6       30.21F
$$

COZ086-089-092>099-160700-
...SOUTHEAST COLORADO...

CITY           SKY/WX    TMP DP  RH WIND       PRES   REMARKS
PUEBLO         CLEAR     55  52  89 CALM      30.30F
LA JUNTA       CLOUDY    60  52  74 S5        30.29F
LAMAR          CLOUDY    61  53  75 S8        30.27F
SPRINGFIELD      N/A     56  54  93 SE3       30.31F
$$


USA.gov is the U.S. government's official web portal to all federal, state and local government web resources and services.